CYGFM02

导读

CYGFM02是一颗由美国发射的人造卫星,于北京时间2016年12月15日08时成功进入太空,作为美国2016年末航天发射任务的载荷之一入轨。作为近地轨道卫星,该卫星属于美国商业航天发射序列,承担特定空间技术验证或相关遥感监测任务,依托美国航天部署,延续了美国在低轨卫星星座布局中的先发优势,目前仍在轨道运行,为相关应用提供空间数据支撑,是全球近地轨道卫星网络中的组成部分。

Basic Information
目录编号:
41886
目录名称:
CYGFM02
国际标识:
2016-078C
轨道中心:
EARTH
卫星名称:
CYGFM02
卫星全名:
--
卫星状态:
在轨 (已飞行3551 天)
发射日期:
2016-12-15 UTC
国别 :
美国 (US)
星等 :
--
Orbit Information
数据来源 国际轨道数据
星历时间: 2026-09-05T20:53:08+0800
6小时前
查看轨道信息
半长轴: 6734.953km
偏心率: 0.0004968
轨道倾角: 34.940°
近地点辐角 275.012°
升交点赤经 42.151°
平近点角 85.004°
近地点: 353.47km
远地点: 360.162km
周期: 91.677分钟
每日圈数: 15.707278
Detailed Information
使用方式:
暂无
2D Orbit Map
3D Orbit Map
Orbit Altitude Analysis Chart
Orbit Inclination Analysis Chart
Orbit Comprehensive Analysis Chart
View Comprehensive Chart
Conjunction Data List
Event ID Objects TCA Miss Dist (km) Collision Risk Probability Collision Risk Index (CRI) Action
CDM_260907-045804-188606-812821
CYGFM02 (41886)
2026-09-07T
04:58:51+0000
1.092 km
极远距离
1.869582E-5 中风险 0.6
CDM_260901-021104-188604-475122
CYGFM02 (41886)
2026-09-01T
02:11:27+0000
1.063 km
极远距离
6.659558E-6 低风险 0.51
CDM_260907-115104-188606-812821
CYGFM02 (41886)
2026-09-07T
11:51:13+0000
2.459 km
极远距离
1.697641E-6 低风险 0.4
CDM_260908-030704-188606-812821
CYGFM02 (41886)
2026-09-08T
03:07:30+0000
2.540 km
极远距离
1.583142E-6 低风险 0.39
CDM_260907-032704-188606-812821
CYGFM02 (41886)
2026-09-07T
03:27:13+0000
2.707 km
极远距离
1.455454E-6 低风险 0.38
CDM_260907-132204-188606-812821
CYGFM02 (41886)
2026-09-07T
13:22:51+0000
2.785 km
极远距离
1.38526E-6 低风险 0.38
CDM_260908-013504-188606-812821
CYGFM02 (41886)
2026-09-08T
01:35:52+0000
2.897 km
极远距离
1.301178E-6 低风险 0.37